星链-1196 (STARLINK-1196 )

导读

STARLINK-1196是美国于2020年1月29日发射的星链卫星,属于SpaceX星链低轨互联网星座的组成部分,服务于全球卫星互联网组网。星链星座通过大量低轨卫星部署,旨在为全球用户提供高速宽带接入,该卫星入轨后参与星座运行,支撑全球覆盖的互联网通信服务,推动星链网络逐步完成规模化部署。

基本信息
目录编号:
45103
目录名称:
STARLINK-1196
国际标识:
2020-006BM
轨道中心:
EARTH
卫星名称:
星链-1196
卫星全名:
星链-1196 (STARLINK-1196 )
卫星状态:
已陨落 最后检测时间 2024-08-25
发射日期:
2020-01-29 UTC
国别 :
美国 (US)
星等 :
--
该卫星已列入 空间交会检测服务 Space Conjunction Data Service (SCDS) ,当前飞行风险评估等级: 无高风险
轨道信息
数据来源 国际轨道数据
星历时间: 2024-08-26T05:40:29+0800
轨道信息已过期747天
半长轴: 6568.892km
偏心率: 0.0006174
轨道倾角: 53.039°
近地点辐角 228.031°
升交点赤经 138.259°
平近点角 198.788°
近地点: 186.701km
远地点: 194.813km
周期: 88.308分钟
每日圈数: 16.306647
详细信息
固有亮度:
5
最大亮度:
2.5
卫星平台:
Starlink V1.0
覆盖范围:
全球
运营商:
太空探索技术公司
运营商所在国:
美国
制造商(研发单位):
太空探索技术公司
制造商所在国:
美国
使用方式:
暂无
卫星简介
星链(Starlink)计划是由太空探索技术公司(SpaceX)提出的一个巨型低轨卫星互联网星座项目,计划在2019年至2024年间在太空搭建由约1.2万颗卫星组成的“星链”网络,其中1584颗将部署在地球上空550千米处的近地轨道,并从2020年开始工作。该卫星仍在工作。
与全量物体交会距离演化趋势
与全量物体交会风险概率演化趋势